Regional Weather Roundup
Issued by NWS

Home | Current Version | Previous Version | Text Only | Print | Product List | Glossary On
Versions: 1 2 3 4 5 6 7 8 9 10 11 12 13 14 15 16 17 18 19 20 21 22 23 24 25 26 27 28 29 30 31 32 33 34 35 36 37 38 39 40 41 42 43 44 45 46 47 48 49 50
000
ASUS44 KJAN 040610
RWRMS

MISSISSIPPI HOURLY WEATHER ROUNDUP
NATIONAL WEATHER SERVICE JACKSON MS
100 AM CDT TUE AUG 04 2015

NOTE: "FAIR: INDICATES FEW OR NO CLOUDS BELOW 12,000 FEET WITH NO
SIGNIFICANT WEATHER AND/OR OBSTRUCTIONS TO VISIBILITY.

MSZ001>002-007>008-010>013-018>021-025>028-034>036-040700-
NORTHWEST MISSISSIPPI

CITY           SKY/WX    TMP DP  RH WIND       PRES   REMARKS
CLARKSDALE       N/A     77  75  94 CALM      29.93F
CLEVELAND      FAIR      76  73  91 CALM      29.92S
GREENWOOD      CLEAR     73  69  87 CALM      29.92F
6HR MIN TEMP:  72; 6HR MAX TEMP:  89;

GREENVILLE     CLEAR     76  72  87 CALM      29.91F
6HR MIN TEMP:  74; 6HR MAX TEMP:  92;

OLIVE BRANCH     N/A     79  73  83 CALM      29.94F
OXFORD         FAIR      73  70  88 CALM      29.96S
TUNICA         PTCLDY    75  72  88 CALM      29.94S
$$

MSZ003>006-009-014>017-022>024-029>033-037>039-040700-
NORTHEAST MISSISSIPPI

CITY           SKY/WX    TMP DP  RH WIND       PRES   REMARKS
COLUMBUS AFB   CLEAR     72  70  93 CALM      29.93S
6HR MIN TEMP:  72; 6HR MAX TEMP:  91;

CORINTH        FAIR      75  72  88 MISG      29.94S
GOLDN TRIANGLE CLEAR     73  66  78 CALM      29.93S
STARKVILLE     FAIR      70  68  94 CALM      29.94S
TUPELO         PTCLDY    78  73  84 N3        29.93S
6HR MIN TEMP:  78; 6HR MAX TEMP:  92;

$$

MSZ040-058-040700-
CENTRAL MISSISSIPPI

CITY           SKY/WX    TMP DP  RH WIND       PRES   REMARKS
JACKSON INTL   CLEAR     77  66  68 SE3       29.93R
6HR MIN TEMP:  76; 6HR MAX TEMP:  96;

JACKSON HAWKNS CLEAR     78  69  73 CALM      29.93S
6HR MIN TEMP:  77; 6HR MAX TEMP:  95;

MERIDIAN KEY   CLEAR     70  65  84 CALM      29.94S
6HR MIN TEMP:  70; 6HR MAX TEMP:  93;

MERIDIAN NAS   CLEAR     72  67  84 CALM      29.94S
6HR MIN TEMP:  72; 6HR MAX TEMP:  91;

VICKSBURG      CLEAR     73  70  90 CALM      29.91R
6HR MIN TEMP:  73; 6HR MAX TEMP:  93;

$$

MSZ059>079-040700-
SOUTH MISSISSIPPI

CITY           SKY/WX    TMP DP  RH WIND       PRES   REMARKS
BROOKHAVEN       N/A     77  73  88 S3        29.95S
HATTIESBURG    CLEAR     77  73  87 CALM      29.94R
6HR MIN TEMP:  77; 6HR MAX TEMP:  95;

MCCOMB         CLEAR     77  75  93 CALM      29.94S
6HR MIN TEMP:  75; 6HR MAX TEMP:  92;

NATCHEZ        CLEAR     75  70  83 S3        29.93S
6HR MIN TEMP:  75; 6HR MAX TEMP:  91;

PINE BELT      CLEAR     73  70  88 CALM      29.95S
6HR MIN TEMP:  72; 6HR MAX TEMP:  91;

$$

MSZ080>082-040700-
COASTAL MISSISSIPPI

CITY           SKY/WX    TMP DP  RH WIND       PRES   REMARKS
BILOXI         CLEAR     81  76  84 W2        29.92S
6HR MIN TEMP:  79; 6HR MAX TEMP:  87;

PASCAGOULA     CLEAR     74  74 100 CALM      29.93R
6HR MIN TEMP:  74; 6HR MAX TEMP:  86;

GULFPORT       CLEAR     79  74  84 CALM      29.92S
6HR MIN TEMP:  79; 6HR MAX TEMP:  87;

$$



USA.gov is the U.S. government's official web portal to all federal, state and local government web resources and services.